SCP
0 0 0 0 0 0 0 0 0 0 0 0 0 0 0 0 0 0 0 0 0 0 0 0 0 0 0 0 0 0 0 0 0 0 0 0 0 0 0 0 0 0 0 0
0 0 0 0 0 0 0 0 0 0 0 0 0 0 0 0 0 0 0 0 0 0 0 0 0 0 0 0 0 0 0 0 0 0 0 0 0 0 0 0 0 0 0 0
0 0 -0 0 0 0 0 0 0 0 0 0 0 0 0 0 0 0 0 0 0 0 0 0 0 0 0 0 0 0 0 0 0 0 0 0 -0 0 0 0 0 0 0 0
0 0 0 0 0 0 0 0 0 0 0 0 0 0 0 0 0 0 0 0 0 0 0 0 0 0 0 0 0 0 0 0 0 0 0 0 0 0 0 0 0 0 0 0
0 0 0 0 0 0 0 0 0 0 0 0 0 0 0 0 0 0 0 0 0 0 0 0 0 0 0 0 0 0 0 0 0 0 0 0 0 0 0 0 0 0 0 0
0 0 0 0 0 0 0 0 0 0 0 0 0 0 0 0 0 0 0 0 0 0 0 0 0 0 0 0 0 0 0 0 0 0 0 0 0 0 0 0 0 0 0 0
0 0 0 0 0 0 0 0 0 0 0 0 0 0 0 0 0 0 0 0 0 0 0 0 0 0 0 0 0 0 0 0 0 0 0 0 0 0 0 0 0 0 0 0
0 0 0 0 0 0 0 0 0 0 0 0 0 0 0 0 0 0 0 0 0 0 0 0 0 0 0 0 0 0 0 0 0 0 0 0 0 0 0 0 0 0 0 0
0 0 0 0 0 0 0 0 0 0 0 0 0 0 0 0 0 0 0 0 0 0 0 0 0 0 0 0 0 0 0 0 0 0 0 0 0 0 0 0 0 0 0 0
0 0 0 0 0 0 0 0 0 0 0 0 0 0 0 0 0 0 0 0 0 0 0 0 0 0 0 0 0 0 0 0 0 0 0 0 0 0 0 0 0 0 0 0
0 0 0 0 0 0 0 0 0 0 0 0 0 0 0 0 0 0 0 0 0 0 0 0 0 0 0 0 0 0 0 0 0 0 0 0 0 0 0 0 0 0 0 0
0 0 0 0 0 0 0 0 0 0 0 0 0 0 0 0 0 0 0 0 0 0 0 0 0 0 0 0 0 0 0 0 0 0 0 0 0 0 0 0 0 0 0 0
0 0 0 0 0 0 0 0 0 0 0 0 0 0 0 0 0 0 0 0 0 0 0 0 0 0 0 0 0 0 0 0 0 0 0 0 0 0 0 0 0 0 0 0
0 0 0 0 0 0 0 0 0 0 0 0 0 0 0 0 0 0 0 0 0 0 0 0 0 0 0 0 0 0 0 0 0 0 0 0 0 0 0 0 0 0 0 0
0 0 0 0 0 0 0 0 0 0 0 0 0 0 0 0 0 0 0 0 0 0 0 0 0 0 0 0 0 0 0 0 0 0 0 0 0 0 0 0 0 0 0 0
0 0 0 0 0 0 0 0 0 0 0 0 0 0 0 0 0 0 0 0 0 0 0 0 0 0 0 0 0 0 0 0 0 0 0 0 0 0 0 0 0 0 0 0
0 0 0 0 0 0 0 0 0 0 0 0 0 0 0 0 0 0 0 0 0 0 0 0 0 0 0 0 0 0 0 0 0 0 0 0 0 0 0 0 0 0 0 0
0 0 0 0 0 0 0 0 0 0 0 0 0 0 0 0 0 0 0 0 0 0 0 0 0 0 0 0 0 0 0 0 0 0 0 0 0 0 0 0 0 0 0 0
0 0 0 0 0 0 0 0 0 0 0 0 0 0 0 0 0 0 0 0 0 0 0 0 0 0 0 0 0 0 0 0 0 0 0 0 0 0 0 0 0 0 0 0
0 0 0 0 0 0 0 0 0 0 0 0 0 0 0 0 0 0 0 0 0 0 0 0 0 0 0 0 0 0 0 0 0 0 0 0 0 0 0 0 0 0 0 0
0 0 0 0 0 0 0 0 0 0 0 0 0 0 0 0 0 0 0 0 0 0 0 0 0 0 0 0 0 0 0 0 0 0 0 0 0 0 0 0 0 0 0 0
0 0 0 0 0 0 0 0 0 0 0 0 0 0 0 0 0 0 0 0 0 0 0 0 0 0 0 0 0 0 0 0 0 0 0 0 0 0 0 0 0 0 0 0
0 0 0 0 0 0 0 0 0 0 0 0 0 0 0 0 0 0 0 0 0 0 0 0 0 0 0 0 0 0 0 0 0 0 0 0 0 0 0 0 0 0 0 0
0 0 0 0 0 0 0 0 0 0 0 0 0 0 0 0 0 0 0 0 0 0 0 0 0 0 0 0 0 0 0 0 0 0 0 0 0 0 0 0 0 0 0 0
0 0 0 0 0 0 0 0 0 0 0 0 0 0 0 0 0 0 0 0 0 0 0 0 0 0 0 0 0 0 0 0 0 0 0 0 0 0 0 0 0 0 0 0
0 0 0 0 0 0 0 0 0 0 0 0 0 0 0 0 0 0 0 0 0 0 0 0 0 0 0 0 0 0 0 0 0 0 0 0 0 0 0 0 0 0 0 0
0 0 0 0 0 0 0 0 0 0 0 0 0 0 0 0 0 0 0 0 0 0 0 0 0 0 0 0 0 0 0 0 0 0 0 0 0 0 0 0 0 0 0 0
Wind_Speed
3 1 5 7 8 7 7 7 3 7 13 14 13 12 11 10 9 8 7 6 5 5 4 4 3 3 4 3 3 3 3 3 3 4 4 4 5 4 4 5 5 5 4 5
4 5 5 6 7 8 7 6 3 4 6 12 14 11 11 10 10 8 7 6 5 5 4 4 3 3 3 3 2 2 3 3 3 4 4 5 5 5 5 5 5 5 5 5
6 7 7 9 11 10 8 7 5 4 6 14 14 13 12 11 9 9 8 6 5 4 4 3 3 3 4 3 3 3 4 4 4 4 4 4 5 5 5 5 5 5 5 5
5 6 8 3 3 4 5 5 4 4 7 12 12 10 8 9 8 8 8 6 5 3 3 2 3 3 2 2 3 4 5 5 4 4 4 4 5 5 5 4 5 5 5 5
5 7 6 5 6 6 6 5 5 6 10 11 12 10 8 9 8 8 7 6 4 3 3 3 4 3 3 3 4 4 4 4 5 5 5 5 5 5 5 5 5 5 5 5
6 6 6 3 9 7 4 4 7 9 11 13 13 8 7 10 9 8 7 5 4 3 3 3 3 3 3 3 3 4 4 4 4 5 4 4 5 5 5 5 5 5 5 5
9 8 3 8 9 8 5 3 8 9 11 13 11 5 9 12 10 8 7 6 4 3 3 2 2 2 2 3 4 3 3 3 3 4 4 3 3 4 5 5 5 6 6 5
8 9 4 10 8 5 3 6 7 8 9 10 7 7 12 12 10 8 7 5 4 3 3 2 0 1 2 3 3 2 2 3 3 4 4 4 3 4 4 5 5 5 5 6
3 1 6 7 5 5 5 6 6 6 7 9 9 10 10 9 8 7 6 5 4 3 3 2 1 0 1 1 1 2 2 3 4 4 3 3 3 4 4 4 3 4 4 5
2 6 7 6 6 6 4 4 5 5 6 8 8 9 9 8 7 7 6 5 4 3 3 2 2 1 1 0 1 2 3 4 4 4 3 4 3 3 2 3 3 3 4 5
3 3 6 5 5 5 4 4 5 5 5 6 7 7 7 7 7 6 5 5 4 4 3 2 2 2 1 1 1 3 3 4 4 3 3 3 4 3 4 3 3 4 4 4
3 3 4 6 7 6 5 5 5 5 5 4 5 6 6 5 6 5 5 5 4 4 3 3 2 2 2 1 2 3 3 3 3 2 2 3 4 5 6 7 8 9 9 8
1 3 4 4 5 6 5 4 4 5 5 5 4 4 5 4 4 4 4 5 5 4 4 3 3 3 2 2 2 3 4 4 3 2 3 3 4 4 5 6 9 10 11 12
2 2 2 3 3 4 4 4 4 4 4 4 4 4 4 4 4 4 4 4 4 4 4 4 3 3 2 2 2 3 4 4 3 3 3 3 4 4 5 5 6 5 7 11
3 3 3 3 3 4 4 4 4 4 4 4 3 4 4 4 4 4 4 3 3 4 4 4 4 4 3 3 3 4 4 3 3 3 3 4 5 5 5 6 6 5 5 6
4 4 3 3 4 4 4 5 5 4 4 4 3 3 3 3 3 3 3 3 4 4 4 4 5 4 3 3 4 3 3 6 6 4 4 5 5 5 5 5 5 5 5 5
6 6 6 6 5 5 5 4 4 4 4 4 4 3 3 3 3 3 4 4 4 5 4 5 5 4 3 3 4 3 3 5 8 6 5 5 5 5 5 5 5 6 6 7
5 4 4 4 3 3 4 3 3 3 3 3 3 3 3 4 4 4 4 4 5 5 5 5 4 4 4 5 4 4 4 4 4 5 5 5 6 5 5 6 6 7 6 7
2 2 1 1 1 2 2 2 2 2 2 2 3 3 4 4 4 4 4 5 5 6 5 5 6 5 5 5 5 4 4 5 5 5 5 7 7 6 6 6 6 6 7 6
2 2 2 1 1 1 1 1 2 2 2 2 2 3 4 4 4 4 5 5 5 4 4 4 4 5 5 5 5 4 5 5 6 6 6 6 6 6 6 6 6 6 6 6
2 2 2 1 1 1 1 2 2 2 2 2 3 3 4 4 4 4 4 4 4 4 4 5 4 4 4 4 5 5 5 6 6 6 6 6 6 6 6 6 6 6 6 7
1 1 1 1 2 2 2 2 2 2 2 2 3 4 4 4 5 5 5 4 4 4 3 3 3 5 5 6 5 5 6 7 6 6 6 6 6 6 6 6 6 6 6 6
1 1 2 2 2 2 2 3 3 2 2 3 4 4 4 4 4 4 4 3 3 4 4 4 6 8 10 6 5 6 7 7 7 7 6 6 6 6 6 6 6 6 6 6
2 2 3 3 3 4 4 3 3 2 3 3 4 4 4 4 4 4 4 4 5 6 4 6 9 10 10 6 6 7 7 7 6 6 6 5 5 5 5 5 5 5 6 8
3 3 4 4 4 3 4 4 4 4 4 3 4 4 4 3 4 4 4 4 6 6 5 6 10 11 8 6 6 6 6 6 6 6 5 5 5 5 5 6 6 6 6 6
4 3 3 4 4 3 3 3 3 3 3 3 3 3 4 3 4 4 4 5 7 7 6 5 6 7 6 6 6 6 6 6 6 6 6 5 6 6 5 5 6 6 6 7
5 4 3 3 3 3 3 3 3 3 3 4 4 3 3 3 3 4 5 4 5 5 5 5 5 5 5 5 6 6 5 5 5 5 5 5 5 5 5 6 5 5 6 7
Wind_Direction
204 232 183 189 187 203 239 267 279 135 154 164 157 150 147 142 137 132 124 115 110 104 96 84 70 56 63 59 48 43 47 30 12 353 353 345 340 338 327 315 307 298 292 291
198 196 223 228 213 207 218 244 257 141 141 146 145 145 149 150 145 139 130 123 116 106 98 87 75 63 71 63 51 54 56 40 24 0 354 347 338 336 330 323 318 317 310 304
238 193 204 229 223 217 215 220 221 201 146 141 150 159 161 153 149 143 133 124 114 102 90 84 71 54 55 49 44 46 46 36 23 5 357 346 341 337 325 320 316 310 304 299
258 216 227 200 104 174 195 205 196 159 141 150 151 144 140 142 144 140 137 132 123 116 104 89 76 60 52 49 50 48 40 22 9 4 356 346 341 332 327 323 318 307 300 296
253 250 244 169 157 164 177 198 189 167 149 145 136 134 146 151 145 138 134 131 125 119 105 70 49 26 20 41 49 46 35 13 5 359 351 345 339 333 328 325 318 313 308 302
249 247 250 139 139 147 162 199 183 169 159 150 146 164 174 155 143 135 131 128 122 112 89 71 46 14 5 36 51 45 28 6 358 348 342 339 336 332 329 324 316 314 311 307
248 249 244 117 127 144 185 194 157 161 157 158 171 173 147 146 142 136 132 130 130 122 100 81 31 353 344 39 51 42 19 348 337 330 322 325 334 326 321 321 319 316 315 316
225 237 210 139 152 171 112 109 136 144 149 156 148 120 127 137 138 141 140 143 148 138 125 126 31 330 3 43 40 18 338 314 307 305 311 331 327 317 316 320 320 320 321 323
197 129 96 133 126 97 97 121 126 133 139 143 136 135 137 141 144 149 152 157 157 152 161 178 178 352 7 43 9 322 306 303 298 297 297 306 310 312 316 325 327 324 324 323
151 135 138 138 121 116 115 110 111 119 131 141 143 144 148 150 154 158 166 164 163 170 191 192 179 177 194 226 296 300 305 304 300 309 324 324 315 303 308 311 313 313 314 312
228 161 138 151 154 146 139 131 124 123 134 144 148 152 155 159 162 165 168 165 173 188 199 213 197 187 202 214 272 287 286 288 297 303 304 304 304 298 293 272 268 275 279 284
211 199 180 165 163 159 159 158 149 146 149 151 152 157 161 164 162 167 174 176 184 195 206 221 216 212 211 216 252 276 286 292 290 293 293 295 296 296 283 276 278 272 266 267
245 54 77 101 130 150 161 166 163 165 164 161 159 160 166 162 160 172 183 192 195 201 212 225 224 222 214 220 245 269 278 282 283 288 292 291 290 292 296 291 278 275 274 273
74 91 123 137 144 154 169 175 175 175 172 169 163 161 166 168 174 189 201 203 199 204 216 229 233 233 223 229 245 260 271 280 279 266 270 278 282 283 284 287 290 283 272 270
196 197 186 152 158 163 168 177 182 185 180 174 164 166 177 186 194 203 209 209 201 213 226 233 237 236 226 232 241 255 264 260 263 267 269 271 272 275 277 280 279 282 287 285
199 190 186 188 188 185 189 195 195 195 190 185 182 185 192 200 204 211 216 211 213 224 231 237 241 238 230 233 240 247 253 262 266 263 264 266 267 269 272 276 280 282 283 284
211 205 200 202 199 198 202 206 206 204 200 197 194 194 201 208 213 222 227 224 228 232 230 236 245 243 240 240 244 244 248 259 263 263 260 264 267 269 271 274 278 280 279 280
221 217 213 212 209 204 206 209 216 218 218 211 197 200 210 219 226 229 236 238 239 239 236 236 237 244 248 245 243 245 251 256 257 258 258 260 265 267 270 271 275 279 280 280
192 179 177 172 192 213 220 220 223 228 232 223 212 216 224 231 237 239 242 245 245 245 243 239 242 247 254 251 255 247 253 261 263 265 265 268 270 265 265 267 269 273 278 280
118 122 131 152 181 209 225 232 239 237 238 240 235 235 239 244 247 247 246 246 240 238 246 255 253 251 252 253 253 252 255 263 269 271 271 269 267 267 267 269 274 280 282 282
136 142 156 174 193 221 236 240 239 232 228 232 239 243 246 253 257 257 253 253 252 246 252 259 258 251 248 262 263 258 258 260 263 266 268 268 268 269 270 272 277 281 283 282
164 175 186 205 224 239 249 255 256 253 246 242 247 251 254 256 259 261 253 245 247 242 243 247 252 259 268 275 261 256 258 262 263 264 263 264 267 270 271 273 274 277 279 280
248 242 239 245 254 263 268 263 262 262 252 253 255 254 255 255 251 252 260 252 251 253 253 253 260 269 272 267 261 260 260 260 261 263 265 266 267 268 270 274 275 279 282 284
264 267 266 265 263 259 256 255 256 253 252 255 252 253 259 263 260 254 258 261 254 255 253 257 264 266 264 259 260 261 261 261 261 263 268 271 272 273 276 280 282 282 283 287
267 266 266 267 262 260 267 273 271 260 254 250 253 255 256 254 257 262 265 268 267 263 258 259 263 263 258 257 257 259 263 263 267 272 271 274 274 277 279 279 279 283 284 285
278 271 264 263 268 272 271 265 260 256 255 256 256 258 260 261 264 264 263 264 267 265 259 254 253 254 255 258 257 260 263 272 276 271 269 273 274 275 277 281 289 288 287 286
281 273 261 251 251 251 256 258 260 262 260 260 266 267 271 277 279 282 283 280 278 271 265 260 257 256 257 260 264 266 266 266 267 268 271 272 274 275 278 283 282 283 286 288